Find Starlink 32454

NORAD ID: 62142 Int'l Des: 2024-224 Owner: SPXS Country: US Constellation: starlink operational
LEOCIRCULAR

Live-Position

3D-Globus wird geladen...

Über Starlink 32454

Beschreibung wird geladen...

Nächste Überflüge

Passes for default location (London). Set your location on the main map for personalized predictions.

Höhenverlauf

Loading altitude history...

Zweizeiliger Elementsatz

1 62142U 24224D 26121.98412995 .00011691 00000-0 43365-3 0 9990
2 62142 42.9985 224.6518 0000540 327.3618 32.7200 15.27581837 80549
Epoch: 1. Mai 2026 • Age: 16 hours

Aktueller Status

Höhe 482.3 km
Geschwindigkeit 7.63 km/s
Subsatellitenpunkt 21.82°N, 153.82°E
Startdatum 30. Nov. 2024
Alter 1.4 years
Typ internet

Technische Details

Klassifizierung Payload
Masse 730.00 kg
Trockenmasse 700.00 kg
Gesamtmasse 730.00 kg
Länge 0.30 m
Durchmesser 4.10 m
Spannweite 29.00 m
Form Box + pan
Hersteller SPXS
Bus-Typ Starlink V2M
Phasenstatus In Orbit
Besitzer/Staat SPXS/US

Most Searched